FW9852 Weather Reports


time (UTC)temp
C
wind
direction
speed
KPH
gust
KPH
rain 1hr
cm
rain 24hr
cm
rain mn
cm
humidity
%
barometer
mb
20260508144600 13 74 9.7 22.5 0.00 0.00 0.00 24 1022.5
20260508143113 14 105 9.7 24.1 0.00 0.00 0.00 27 1022.3
20260508141615 14 58 11.3 27.4 0.00 0.00 0.00 27 1022.4
20260508140058 15 86 8.0 20.9 0.00 0.00 0.00 28 1022.4
20260508134555 14 119 11.3 24.1 0.00 0.00 0.00 27 1022.4
20260508133101 15 88 11.3 25.7 0.00 0.00 0.00 27 1022.4
20260508131555 15 101 9.7 20.9 0.00 0.00 0.00 26 1022.5
20260508124558 15 134 12.9 27.4 0.00 0.00 0.00 28 1022.4
20260508123056 15 136 8.0 25.7 0.00 0.00 0.00 29 1022.4
20260508121608 15 55 9.7 22.5 0.00 0.00 0.00 29 1022.6
20260508120057 15 131 9.7 22.5 0.00 0.00 0.00 28 1022.7
20260508114556 15 93 11.3 25.7 0.00 0.00 0.00 32 1022.7
20260508113108 15 146 12.9 24.1 0.00 0.00 0.00 32 1022.6
20260508111604 15 97 6.4 19.3 0.00 0.00 0.00 35 1022.5
20260508104557 14 109 8.0 19.3 0.00 0.00 0.00 33 1022.7
20260508103107 14 355 8.0 22.5 0.00 0.00 0.00 36 1022.6
20260508101556 13 102 11.3 25.7 0.00 0.00 0.00 37 1022.6
20260508100058 13 120 8.0 22.5 0.00 0.00 0.00 36 1022.7
20260508094610 13 103 8.0 19.3 0.00 0.00 0.00 37 1022.7
20260508093059 13 96 12.9 24.1 0.00 0.00 0.00 35 1022.7
20260508091605 13 82 8.0 22.5 0.00 0.00 0.00 36 1022.7
20260508090058 13 82 8.0 17.7 0.00 0.00 0.00 37 1022.7
20260508084555 13 25 8.0 19.3 0.00 0.00 0.00 39 1022.7
20260508083144 13 70 9.7 17.7 0.00 0.00 0.00 38 1022.6
20260508081603 13 103 9.7 17.7 0.00 0.00 0.00 39 1022.5
20260508080100 13 63 6.4 17.7 0.00 0.00 0.00 38 1022.6
20260508074555 12 53 6.4 14.5 0.00 0.00 0.00 41 1022.6
20260508073104 12 110 4.8 14.5 0.00 0.00 0.00 42 1022.4
20260508071558 12 77 3.2 14.5 0.00 0.00 0.00 46 1022.3
20260508070059 11 91 4.8 11.3 0.00 0.00 0.00 47 1022.4
20260508064610 11 44 1.6 9.7 0.00 0.00 0.00 51 1022.3
20260508063058 10 98 1.6 6.4 0.00 0.00 0.00 54 1022.2
20260508061603 10 96 4.8 9.7 0.00 0.00 0.00 54 1022.2
20260508060107 9 73 1.6 9.7 0.00 0.00 0.00 57 1022.0
20260508054605 8 115 1.6 6.4 0.00 0.00 0.00 61 1021.9
20260508053104 7 51 1.6 4.8 0.00 0.00 0.00 64 1021.8
20260508051600 6 100 1.6 4.8 0.00 0.00 0.00 68 1021.6
20260508050059 6 101 0.0 3.2 0.00 0.00 0.00 72 1021.5
20260508044556 5 0 0.0 3.2 0.00 0.00 0.00 77 1021.4
20260508043059 4 0 0.0 1.6 0.00 0.00 0.00 82 1021.3
20260508041604 3 0 0.0 0.0 0.00 0.00 0.00 86 1021.0
20260508040113 2 0 0.0 0.0 0.00 0.00 0.00 92 1020.9
20260508034559 0 0 0.0 0.0 0.00 0.00 0.00 94 1020.8
20260508033102 0 0 0.0 0.0 0.00 0.00 0.00 96 1020.7
20260508031600 -1 0 0.0 1.6 0.00 0.00 0.00 94 1020.5
20260508030124 -2 0 0.0 0.0 0.00 0.00 0.00 94 1020.4
20260508024605 -2 0 0.0 0.0 0.00 0.05 0.00 93 1020.3
20260508023058 -2 0 0.0 1.6 0.00 0.05 0.00 93 1020.1
20260508021600 -1 0 0.0 1.6 0.00 0.05 0.00 93 1020.1
20260508020057 -1 0 0.0 0.0 0.00 0.05 0.00 94 1019.9
20260508014555 -1 0 0.0 0.0 0.00 0.08 0.00 94 1019.8
20260508013058 -1 0 0.0 0.0 0.00 0.08 0.00 93 1019.8
20260508011609 -1 0 0.0 1.6 0.00 0.08 0.00 93 1019.7
20260508010106 -1 0 0.0 0.0 0.00 0.08 0.00 93 1019.7
20260508004604 -1 0 0.0 0.0 0.00 0.08 0.00 93 1019.5
20260508003110 -1 0 0.0 0.0 0.00 0.08 0.00 93 1019.3
20260508001559 -1 0 0.0 0.0 0.00 0.08 0.00 93 1019.1
20260508000057 -1 0 0.0 0.0 0.00 0.08 0.00 93 1019.0
20260507234559 -1 0 0.0 0.0 0.00 0.13 0.00 92 1018.9
20260507233059 -1 0 0.0 1.6 0.00 0.13 0.00 92 1018.8
20260507231609 0 0 0.0 0.0 0.00 0.13 0.00 92 1018.6
20260507230058 0 0 0.0 0.0 0.00 0.13 0.00 92 1018.5
20260507224606 0 0 0.0 0.0 0.00 0.13 0.00 92 1018.3
20260507223057 0 0 0.0 0.0 0.00 0.13 0.00 92 1018.2
20260507221617 0 0 0.0 0.0 0.00 0.13 0.00 92 1018.2
20260507220104 0 0 0.0 0.0 0.00 0.13 0.00 91 1018.1
20260507214610 0 0 0.0 0.0 0.00 0.13 0.00 91 1017.9
20260507213109 0 0 0.0 0.0 0.00 0.13 0.00 91 1017.6
20260507211556 1 0 0.0 0.0 0.00 0.13 0.00 91 1017.4
20260507204602 1 0 0.0 0.0 0.00 0.13 0.13 90 1017.0
20260507203100 2 0 0.0 0.0 0.00 0.13 0.13 89 1016.8
20260507201557 2 0 0.0 0.0 0.00 0.13 0.13 89 1016.7
20260507200057 2 0 0.0 0.0 0.00 0.13 0.13 88 1016.6
20260507194601 3 0 0.0 0.0 0.00 0.13 0.13 86 1016.4
20260507193110 3 0 0.0 0.0 0.00 0.13 0.13 85 1016.1
20260507191600 4 0 0.0 1.6 0.00 0.13 0.13 85 1016.1
20260507190104 5 0 0.0 0.0 0.00 0.13 0.13 82 1016.0
20260507184556 5 0 0.0 0.0 0.00 0.13 0.13 79 1015.7
20260507183101 6 0 0.0 0.0 0.00 0.13 0.13 78 1015.6
20260507181611 7 0 0.0 1.6 0.00 0.13 0.13 75 1015.5
20260507180104 8 0 0.0 3.2 0.00 0.13 0.13 72 1015.3
20260507174608 8 41 0.0 3.2 0.00 0.13 0.13 70 1015.0
20260507173112 9 118 3.2 9.7 0.00 0.13 0.13 68 1014.8
20260507171614 9 48 1.6 9.7 0.00 0.13 0.13 68 1014.6
20260507170104 10 91 1.6 6.4 0.00 0.13 0.13 67 1014.3
20260507164612 10 105 3.2 11.3 0.00 0.13 0.13 67 1014.1
20260507163106 10 105 3.2 11.3 0.00 0.13 0.13 67 1014.3
20260507161612 10 103 4.8 12.9 0.00 0.13 0.13 67 1014.1
20260507154558 9 101 3.2 9.7 0.00 0.13 0.13 70 1014.0
20260507153058 9 95 4.8 16.1 0.00 0.13 0.13 70 1014.0
20260507151558 9 82 4.8 11.3 0.00 0.13 0.13 73 1013.9
20260507150058 8 57 4.8 14.5 0.00 0.13 0.13 73 1014.0